| time (UTC) | temp F | wind direction | speed MPH | gust MPH | rain 1hr in | rain 24hr in | rain mn in | humidity % | barometer mb |
| 20260503034529 | 31 | 183 | 0.0 | 1.0 | 0.00 | 0.11 | 0.08 | 84 | 1011.4 |
| 20260503033026 | 32 | 184 | 0.0 | 0.0 | 0.00 | 0.11 | 0.08 | 82 | 1011.4 |
| 20260503031524 | 33 | 184 | 0.0 | 0.0 | 0.00 | 0.11 | 0.08 | 81 | 1011.6 |
| 20260503030022 | 33 | 184 | 0.0 | 0.0 | 0.00 | 0.14 | 0.08 | 79 | 1011.5 |
| 20260503024509 | 34 | 184 | 0.0 | 0.0 | 0.00 | 0.14 | 0.08 | 78 | 1011.6 |
| 20260503023008 | 34 | 184 | 0.0 | 0.0 | 0.00 | 0.14 | 0.08 | 77 | 1011.7 |
| 20260503021510 | 35 | 184 | 0.0 | 0.0 | 0.00 | 0.14 | 0.08 | 76 | 1011.7 |
| 20260503020004 | 36 | 184 | 0.0 | 0.0 | 0.00 | 0.20 | 0.08 | 72 | 1011.6 |
| 20260503014559 | 36 | 184 | 0.0 | 0.0 | 0.00 | 0.20 | 0.08 | 72 | 1011.4 |
| 20260503013058 | 38 | 184 | 0.0 | 0.0 | 0.00 | 0.20 | 0.08 | 69 | 1011.4 |
| 20260503011604 | 39 | 184 | 0.0 | 0.0 | 0.00 | 0.20 | 0.08 | 67 | 1011.4 |
| 20260503010058 | 40 | 183 | 0.0 | 0.0 | 0.00 | 0.20 | 0.08 | 64 | 1011.1 |
| 20260503004534 | 41 | 183 | 0.0 | 0.0 | 0.00 | 0.20 | 0.08 | 62 | 1011.0 |
| 20260503003034 | 42 | 183 | 0.0 | 0.0 | 0.00 | 0.20 | 0.08 | 57 | 1010.8 |
| 20260503001517 | 43 | 183 | 0.0 | 0.0 | 0.00 | 0.20 | 0.08 | 55 | 1010.8 |
| 20260503000017 | 44 | 182 | 0.0 | 1.0 | 0.00 | 0.20 | 0.08 | 49 | 1010.7 |
| 20260502234512 | 44 | 360 | 0.0 | 2.0 | 0.00 | 0.20 | 0.08 | 47 | 1010.5 |
| 20260502233004 | 45 | 360 | 0.0 | 0.0 | 0.00 | 0.20 | 0.08 | 45 | 1010.4 |
| 20260502231503 | 46 | 360 | 0.0 | 1.0 | 0.00 | 0.20 | 0.08 | 44 | 1010.3 |
| 20260502230003 | 47 | 281 | 0.0 | 3.0 | 0.00 | 0.20 | 0.08 | 42 | 1010.1 |
| 20260502224502 | 47 | 360 | 2.0 | 9.0 | 0.00 | 0.20 | 0.08 | 40 | 1010.0 |
| 20260502223101 | 48 | 360 | 1.0 | 4.0 | 0.00 | 0.20 | 0.08 | 39 | 1009.8 |
| 20260502221605 | 49 | 360 | 0.0 | 4.0 | 0.00 | 0.20 | 0.08 | 38 | 1009.8 |
| 20260502220143 | 49 | 360 | 0.0 | 4.0 | 0.00 | 0.20 | 0.08 | 36 | 1009.8 |
| 20260502214541 | 48 | 360 | 1.0 | 3.0 | 0.00 | 0.20 | 0.08 | 39 | 1009.8 |
| 20260502213042 | 48 | 360 | 0.0 | 5.0 | 0.00 | 0.20 | 0.08 | 39 | 1009.8 |
| 20260502211528 | 49 | 360 | 0.0 | 4.0 | 0.00 | 0.20 | 0.08 | 40 | 1009.8 |
| 20260502210027 | 48 | 360 | 2.0 | 8.0 | 0.00 | 0.20 | 0.08 | 39 | 1009.8 |
| 20260502204527 | 49 | 286 | 0.0 | 4.0 | 0.00 | 0.20 | 0.08 | 40 | 1009.7 |
| 20260502203026 | 48 | 360 | 0.0 | 5.0 | 0.00 | 0.20 | 0.08 | 42 | 1009.9 |
| 20260502201535 | 49 | 360 | 1.0 | 5.0 | 0.00 | 0.20 | 0.08 | 41 | 1009.9 |
| 20260502200027 | 49 | 220 | 2.0 | 5.0 | 0.00 | 0.20 | 0.08 | 39 | 1009.9 |
| 20260502194536 | 50 | 360 | 0.0 | 3.0 | 0.00 | 0.20 | 0.08 | 39 | 1010.0 |
| 20260502193029 | 50 | 254 | 0.0 | 6.0 | 0.00 | 0.20 | 0.08 | 39 | 1010.0 |
| 20260502191619 | 49 | 360 | 0.0 | 8.0 | 0.00 | 0.20 | 0.08 | 40 | 1010.1 |
| 20260502190110 | 48 | 360 | 2.0 | 5.0 | 0.00 | 0.20 | 0.08 | 41 | 1010.3 |
| 20260502184542 | 48 | 360 | 0.0 | 2.0 | 0.00 | 0.20 | 0.08 | 41 | 1010.3 |
| 20260502183050 | 48 | 360 | 1.0 | 4.0 | 0.00 | 0.20 | 0.08 | 42 | 1010.3 |
| 20260502181526 | 49 | 360 | 0.0 | 6.0 | 0.00 | 0.20 | 0.08 | 40 | 1010.1 |
| 20260502163047 | 48 | 360 | 3.0 | 10.0 | 0.00 | 0.20 | 0.08 | 43 | 1010.5 |
| 20260502161510 | 49 | 360 | 0.0 | 6.0 | 0.00 | 0.20 | 0.08 | 44 | 1010.4 |
| 20260502151527 | 48 | 360 | 2.0 | 9.0 | 0.00 | 0.20 | 0.08 | 50 | 1010.6 |
| 20260502130110 | 42 | 261 | 0.0 | 0.0 | 0.00 | 0.20 | 0.08 | 81 | 1011.3 |
| 20260502123058 | 41 | 265 | 0.0 | 0.0 | 0.00 | 0.20 | 0.08 | 81 | 1011.3 |
| 20260502121549 | 40 | 270 | 0.0 | 0.0 | 0.00 | 0.20 | 0.08 | 85 | 1011.2 |
| 20260502114547 | 39 | 300 | 0.0 | 0.0 | 0.00 | 0.20 | 0.08 | 88 | 1011.3 |
| 20260502113039 | 39 | 302 | 0.0 | 0.0 | 0.00 | 0.20 | 0.08 | 88 | 1011.4 |
| 20260502111536 | 39 | 309 | 0.0 | 0.0 | 0.00 | 0.20 | 0.08 | 88 | 1011.3 |
| 20260502110035 | 39 | 310 | 0.0 | 0.0 | 0.00 | 0.20 | 0.08 | 88 | 1011.0 |
| 20260502104532 | 40 | 204 | 0.0 | 0.0 | 0.00 | 0.20 | 0.08 | 89 | 1010.9 |
| 20260502103011 | 40 | 273 | 0.0 | 0.0 | 0.00 | 0.20 | 0.08 | 89 | 1010.7 |
| 20260502101507 | 40 | 274 | 0.0 | 3.0 | 0.00 | 0.20 | 0.08 | 89 | 1010.3 |
| 20260502091524 | 41 | 282 | 1.0 | 4.0 | 0.02 | 0.20 | 0.08 | 93 | 1009.7 |
| 20260502071520 | 42 | 192 | 0.0 | 0.0 | 0.02 | 0.16 | 0.04 | 95 | 1009.4 |
| 20260502064600 | 42 | 192 | 0.0 | 0.0 | 0.00 | 0.14 | 0.02 | 95 | 1009.6 |
| 20260502063043 | 42 | 192 | 0.0 | 0.0 | 0.00 | 0.14 | 0.02 | 95 | 1009.7 |
| 20260502061540 | 42 | 192 | 0.0 | 0.0 | 0.01 | 0.14 | 0.02 | 95 | 1009.9 |
| 20260502060022 | 42 | 192 | 0.0 | 0.0 | 0.01 | 0.14 | 0.02 | 94 | 1009.9 |
| 20260502054526 | 43 | 192 | 0.0 | 0.0 | 0.01 | 0.14 | 0.02 | 94 | 1010.0 |
| 20260502053003 | 42 | 192 | 0.0 | 0.0 | 0.01 | 0.14 | 0.02 | 94 | 1009.9 |
| 20260502051502 | 43 | 192 | 0.0 | 1.0 | 0.01 | 0.13 | 0.01 | 94 | 1010.0 |
| 20260502050043 | 42 | 192 | 0.0 | 0.0 | 0.01 | 0.13 | 0.01 | 94 | 1010.1 |
| 20260502044550 | 42 | 360 | 0.0 | 0.0 | 0.01 | 0.13 | 0.01 | 94 | 1010.3 |
| 20260502043024 | 43 | 192 | 0.0 | 0.0 | 0.01 | 0.13 | 0.01 | 94 | 1010.3 |
| 20260502041524 | 42 | 192 | 0.0 | 0.0 | 0.03 | 0.12 | 0.00 | 93 | 1010.2 |
| 20260502040005 | 42 | 192 | 0.0 | 0.0 | 0.03 | 0.12 | 0.12 | 93 | 1010.3 |